Location: LDNL
(36.4545°S, 141.6685°E)
Time: 05:08:30
(UTC+11:00)

BlueWalker 3 - Pass Details

Date: 30 September 2023
Orbit: 489 x 504 km, 53.2° (Epoch: 29 November)

Event Time Altitude Azimuth Distance (km) Brightness Sun altitude
Rises 19:05:18 0° 235° (SW) 2,610 6.9 -6.7°
Reaches altitude 10° 19:07:38 10° 244° (WSW) 1,716 6.1 -7.2°
Maximum altitude 19:11:10 35° 310° (NW) 829 3.5 -7.9°
Drops below altitude 10° 19:14:40 10° 16° (NNE) 1,686 4.4 -8.6°
Sets 19:16:56 0° 25° (NNE) 2,558 5.2 -9.0°
